{"data":{"norad_id":65426,"intl_designator":"2025-192Y","name":"STARLINK-34883","alt_names":[],"object_type":"PAYLOAD","status":"ACTIVE","operator":null,"country":"US","launch_date":"2025-08-31","launch_site_code":"AFETR","launch_vehicle":null,"mission":null,"orbit_class":"UNKNOWN","rcs_meters":null,"size_class":null,"mass_kg":null,"dimensions":null,"purposes":["comms"],"wikipedia_slug":null,"has_3d_model":false,"image_url":null,"decayed_at":null,"tle_current":{"epoch":"2026-05-24T22:49:19.029216Z","epoch_age_seconds":89823,"freshness":"FRESH","line1":"1 65426U 25192Y   26144.95091469  .00019076  00000+0  65431-3 0  9996","line2":"2 65426  53.1551 237.8732 0000791   0.5626 359.5375 15.30210105 41058","mean_motion":15.30210105,"eccentricity":7.91e-5,"inclination_deg":53.1551,"raan_deg":237.8732,"arg_perigee_deg":0.5626,"mean_anomaly_deg":359.5375,"bstar":0.00065431,"rev_number":4105,"period_min":94.104724265953,"perigee_km":474.64280011468,"apogee_km":475.72699563892,"semimajor_km":6853.3218978768,"source":"CELESTRAK","updated_at":"2026-05-25T13:38:20.804013Z"}}}